Time,TemperatureF,DewpointF,PressureIn,WindDirection,WindDirectionDegrees,WindSpeedMPH,WindSpeedGustMPH,Humidity,HourlyPrecipIn,Conditions,Clouds,dailyrainin,SoftwareType,DateUTC
2013-05-01 00:01:00,55.5,53.8,30.21,ESE,102,0.0,0.0,94,0.00,,---,0.00,VWS V14.01,2013-05-01 04:01:00,
2013-05-01 00:02:00,55.3,53.6,30.21,ESE,102,0.0,0.0,94,0.00,,---,0.00,VWS V14.01,2013-05-01 04:02:00,
2013-05-01 00:03:00,55.3,53.6,30.21,ESE,102,0.0,0.0,94,0.00,,---,0.00,VWS V14.01,2013-05-01 04:03:00,
2013-05-01 00:05:00,55.2,53.5,30.21,ESE,102,0.0,0.0,94,0.00,,---,0.00,VWS V14.01,2013-05-01 04:05:00,
2013-05-01 00:10:00,54.9,53.5,30.21,ESE,102,0.0,0.0,95,0.00,,---,0.00,VWS V14.01,2013-05-01 04:10:00,
2013-05-01 00:15:00,54.8,53.4,30.22,ESE,102,0.0,1.0,95,0.00,,---,0.00,VWS V14.01,2013-05-01 04:15:00,
2013-05-01 00:20:00,54.6,53.2,30.21,ESE,102,0.0,0.0,95,0.00,,---,0.00,VWS V14.01,2013-05-01 04:20:00,
2013-05-01 00:25:00,54.6,53.2,30.22,ESE,102,0.0,0.0,95,0.00,,---,0.00,VWS V14.01,2013-05-01 04:25:00,
2013-05-01 00:30:00,54.5,53.1,30.22,ESE,102,0.0,0.0,95,0.00,,---,0.00,VWS V14.01,2013-05-01 04:30:00,
2013-05-01 00:35:00,54.4,53.0,30.22,ESE,102,0.0,1.0,95,0.00,,---,0.00,VWS V14.01,2013-05-01 04:35:00,
2013-05-01 00:40:00,54.3,53.2,30.22,East,99,0.0,1.0,96,0.00,,---,0.00,VWS V14.01,2013-05-01 04:40:00,
2013-05-01 00:45:00,54.2,53.1,30.22,East,99,0.0,1.0,96,0.00,,---,0.00,VWS V14.01,2013-05-01 04:45:00,
2013-05-01 00:50:00,54.6,53.5,30.22,East,99,0.0,1.0,96,0.00,,---,0.00,VWS V14.01,2013-05-01 04:50:00,
2013-05-01 00:55:00,54.5,53.4,30.22,East,99,0.0,1.0,96,0.00,,---,0.00,VWS V14.01,2013-05-01 04:55:00,
2013-05-01 01:00:00,54.3,53.2,30.22,East,99,1.0,1.0,96,0.00,,---,0.00,VWS V14.01,2013-05-01 05:00:00,
2013-05-01 01:05:00,54.2,53.1,30.22,East,99,0.0,1.0,96,0.00,,---,0.00,VWS V14.01,2013-05-01 05:05:00,
2013-05-01 01:10:00,54.3,53.2,30.22,East,99,0.0,1.0,96,0.00,,---,0.00,VWS V14.01,2013-05-01 05:10:00,
2013-05-01 01:15:00,54.2,53.1,30.22,East,99,0.0,1.0,96,0.00,,---,0.00,VWS V14.01,2013-05-01 05:15:00,
2013-05-01 01:21:00,54.2,53.1,30.22,East,99,1.0,1.0,96,0.00,,---,0.00,VWS V14.01,2013-05-01 05:21:00,
2013-05-01 01:26:00,54.3,53.2,30.22,East,86,0.0,2.0,96,0.00,,---,0.00,VWS V14.01,2013-05-01 05:26:00,
2013-05-01 01:31:00,54.3,53.2,30.22,North,355,0.0,2.0,96,0.00,,---,0.00,VWS V14.01,2013-05-01 05:31:00,
2013-05-01 01:36:00,54.1,53.0,30.22,North,360,0.0,2.0,96,0.00,,---,0.00,VWS V14.01,2013-05-01 05:36:00,
2013-05-01 01:41:00,54.2,53.1,30.22,ENE,70,0.0,2.0,96,0.00,,---,0.00,VWS V14.01,2013-05-01 05:41:00,
2013-05-01 01:46:00,54.2,53.1,30.22,NNE,16,0.0,0.0,96,0.00,,---,0.00,VWS V14.01,2013-05-01 05:46:00,
2013-05-01 01:51:00,54.1,53.0,30.22,NNE,16,0.0,1.0,96,0.00,,---,0.00,VWS V14.01,2013-05-01 05:51:00,
2013-05-01 01:56:00,54.2,53.1,30.22,NNE,16,0.0,1.0,96,0.00,,---,0.00,VWS V14.01,2013-05-01 05:56:00,
2013-05-01 02:01:00,54.0,52.9,30.22,NNE,14,0.0,0.0,96,0.00,,---,0.00,VWS V14.01,2013-05-01 06:01:00,
2013-05-01 02:06:00,53.7,52.3,30.22,NNE,14,0.0,0.0,95,0.00,,---,0.00,VWS V14.01,2013-05-01 06:06:00,
2013-05-01 02:11:00,53.5,52.4,30.22,NNE,14,0.0,1.0,96,0.00,,---,0.00,VWS V14.01,2013-05-01 06:11:00,
2013-05-01 02:16:00,53.6,52.5,30.22,NNE,14,0.0,0.0,96,0.00,,---,0.00,VWS V14.01,2013-05-01 06:16:00,
2013-05-01 02:21:00,53.5,52.4,30.22,NNE,14,0.0,0.0,96,0.00,,---,0.00,VWS V14.01,2013-05-01 06:21:00,
2013-05-01 02:26:00,52.9,51.5,30.22,NNE,14,0.0,0.0,95,0.00,,---,0.00,VWS V14.01,2013-05-01 06:26:00,
2013-05-01 02:31:00,52.4,51.0,30.22,NNE,14,0.0,0.0,95,0.00,,---,0.00,VWS V14.01,2013-05-01 06:31:00,
2013-05-01 02:37:00,52.1,50.7,30.22,NNE,14,0.0,0.0,95,0.00,,---,0.00,VWS V14.01,2013-05-01 06:37:00,
2013-05-01 02:42:00,51.9,50.8,30.22,NNE,14,0.0,0.0,96,0.00,,---,0.00,VWS V14.01,2013-05-01 06:42:00,
2013-05-01 02:47:00,51.8,50.7,30.22,NNE,14,0.0,0.0,96,0.00,,---,0.00,VWS V14.01,2013-05-01 06:47:00,
2013-05-01 02:52:00,51.9,50.8,30.22,NNE,14,0.0,1.0,96,0.00,,---,0.00,VWS V14.01,2013-05-01 06:52:00,
2013-05-01 02:57:00,52.0,50.9,30.22,NNE,14,0.0,1.0,96,0.00,,---,0.00,VWS V14.01,2013-05-01 06:57:00,
2013-05-01 03:02:00,52.0,50.9,30.22,NNE,14,0.0,0.0,96,0.00,,---,0.00,VWS V14.01,2013-05-01 07:02:00,
2013-05-01 03:07:00,51.7,50.6,30.22,NNE,14,0.0,1.0,96,0.00,,---,0.00,VWS V14.01,2013-05-01 07:07:00,
2013-05-01 03:12:00,51.8,50.7,30.22,NNE,14,0.0,1.0,96,0.00,,---,0.00,VWS V14.01,2013-05-01 07:12:00,
2013-05-01 03:17:00,51.8,50.7,30.22,NNE,14,0.0,2.0,96,0.00,,---,0.00,VWS V14.01,2013-05-01 07:17:00,
2013-05-01 03:22:00,51.8,50.7,30.22,NNE,14,0.0,2.0,96,0.00,,---,0.00,VWS V14.01,2013-05-01 07:22:00,
2013-05-01 03:27:00,51.9,51.1,30.22,NNE,14,0.0,2.0,97,0.00,,---,0.00,VWS V14.01,2013-05-01 07:27:00,
2013-05-01 03:32:00,51.9,51.1,30.22,NNE,14,0.0,0.0,97,0.00,,---,0.00,VWS V14.01,2013-05-01 07:32:00,
2013-05-01 03:37:00,52.1,51.3,30.22,NNE,14,0.0,2.0,97,0.00,,---,0.00,VWS V14.01,2013-05-01 07:37:00,
2013-05-01 03:42:00,52.1,51.3,30.22,NNE,12,0.0,2.0,97,0.00,,---,0.00,VWS V14.01,2013-05-01 07:42:00,
2013-05-01 03:47:00,52.3,51.5,30.22,NNE,22,0.0,0.0,97,0.00,,---,0.00,VWS V14.01,2013-05-01 07:47:00,
2013-05-01 03:52:00,52.3,51.5,30.22,NNE,22,0.0,2.0,97,0.00,,---,0.00,VWS V14.01,2013-05-01 07:52:00,
2013-05-01 03:58:00,52.2,51.1,30.21,NNE,22,0.0,2.0,96,0.00,,---,0.00,VWS V14.01,2013-05-01 07:58:00,
2013-05-01 04:03:00,52.2,51.1,30.22,North,360,0.0,2.0,96,0.00,,---,0.00,VWS V14.01,2013-05-01 08:03:00,
2013-05-01 04:08:00,52.2,51.1,30.21,North,360,0.0,2.0,96,0.00,,---,0.00,VWS V14.01,2013-05-01 08:08:00,
2013-05-01 04:13:00,52.1,51.0,30.22,NE,36,3.0,3.0,96,0.00,,---,0.00,VWS V14.01,2013-05-01 08:13:00,
2013-05-01 04:18:00,52.3,51.5,30.22,North,5,2.0,2.0,97,0.00,,---,0.00,VWS V14.01,2013-05-01 08:18:00,
2013-05-01 04:23:00,52.4,51.3,30.22,NE,36,0.0,3.0,96,0.00,,---,0.00,VWS V14.01,2013-05-01 08:23:00,
2013-05-01 04:28:00,52.4,51.3,30.22,North,360,0.0,3.0,96,0.00,,---,0.00,VWS V14.01,2013-05-01 08:28:00,
2013-05-01 04:33:00,52.6,51.8,30.22,NNW,348,0.0,3.0,97,0.00,,---,0.00,VWS V14.01,2013-05-01 08:33:00,
2013-05-01 04:38:00,52.9,52.1,30.22,North,9,0.0,3.0,97,0.00,,---,0.00,VWS V14.01,2013-05-01 08:38:00,
2013-05-01 04:43:00,53.2,52.4,30.22,North,355,0.0,4.0,97,0.00,,---,0.00,VWS V14.01,2013-05-01 08:43:00,
2013-05-01 04:48:00,53.4,52.6,30.23,North,10,1.0,2.0,97,0.00,,---,0.00,VWS V14.01,2013-05-01 08:48:00,
2013-05-01 04:53:00,53.5,52.7,30.22,North,355,1.0,3.0,97,0.00,,---,0.00,VWS V14.01,2013-05-01 08:53:00,
2013-05-01 04:58:00,53.7,52.9,30.22,NNW,333,1.0,3.0,97,0.00,,---,0.00,VWS V14.01,2013-05-01 08:58:00,
2013-05-01 05:03:00,53.8,53.0,30.23,NE,36,1.0,4.0,97,0.00,,---,0.00,VWS V14.01,2013-05-01 09:03:00,
2013-05-01 05:08:00,53.9,53.1,30.23,NNE,25,1.0,4.0,97,0.00,,---,0.00,VWS V14.01,2013-05-01 09:08:00,
2013-05-01 05:14:00,54.1,53.3,30.23,NNE,14,1.0,4.0,97,0.00,,---,0.00,VWS V14.01,2013-05-01 09:14:00,
2013-05-01 05:19:00,54.1,53.0,30.23,East,92,1.0,4.0,96,0.00,,---,0.00,VWS V14.01,2013-05-01 09:19:00,
2013-05-01 05:24:00,54.2,53.1,30.23,North,350,0.0,4.0,96,0.00,,---,0.00,VWS V14.01,2013-05-01 09:24:00,
2013-05-01 05:29:00,54.2,53.1,30.23,ENE,71,2.0,4.0,96,0.00,,---,0.00,VWS V14.01,2013-05-01 09:29:00,
2013-05-01 05:34:00,54.0,52.9,30.23,NE,37,0.0,4.0,96,0.00,,---,0.00,VWS V14.01,2013-05-01 09:34:00,
2013-05-01 05:39:00,53.9,52.8,30.23,NE,53,0.0,4.0,96,0.00,,---,0.00,VWS V14.01,2013-05-01 09:39:00,
2013-05-01 05:44:00,54.0,52.9,30.23,NE,53,0.0,4.0,96,0.00,,---,0.00,VWS V14.01,2013-05-01 09:44:00,
2013-05-01 05:49:00,54.1,53.0,30.24,NE,38,0.0,2.0,96,0.00,,---,0.00,VWS V14.01,2013-05-01 09:49:00,
2013-05-01 05:54:00,54.2,53.1,30.24,NE,51,0.0,2.0,96,0.00,,---,0.00,VWS V14.01,2013-05-01 09:54:00,
2013-05-01 05:59:00,54.3,53.2,30.24,East,82,0.0,2.0,96,0.00,,---,0.00,VWS V14.01,2013-05-01 09:59:00,
2013-05-01 06:04:00,54.4,53.3,30.25,NE,38,0.0,2.0,96,0.00,,---,0.00,VWS V14.01,2013-05-01 10:04:00,
2013-05-01 06:09:00,54.4,53.3,30.25,North,360,0.0,2.0,96,0.00,,---,0.00,VWS V14.01,2013-05-01 10:09:00,
2013-05-01 06:14:00,54.5,53.4,30.25,North,5,0.0,2.0,96,0.00,,---,0.00,VWS V14.01,2013-05-01 10:14:00,
2013-05-01 06:19:00,54.5,53.4,30.25,NNE,17,0.0,2.0,96,0.00,,---,0.00,VWS V14.01,2013-05-01 10:19:00,
2013-05-01 06:25:00,54.6,53.5,30.25,North,355,0.0,2.0,96,0.00,,---,0.00,VWS V14.01,2013-05-01 10:25:00,
2013-05-01 06:30:00,54.6,53.5,30.25,NNW,344,0.0,3.0,96,0.00,,---,0.00,VWS V14.01,2013-05-01 10:30:00,
2013-05-01 06:35:00,54.6,53.5,30.25,North,5,0.0,3.0,96,0.00,,---,0.00,VWS V14.01,2013-05-01 10:35:00,
2013-05-01 06:40:00,54.6,53.5,30.25,NNW,334,0.0,3.0,96,0.00,,---,0.00,VWS V14.01,2013-05-01 10:40:00,
2013-05-01 06:45:00,54.7,53.6,30.25,NNE,13,0.0,4.0,96,0.00,,---,0.00,VWS V14.01,2013-05-01 10:45:00,
2013-05-01 06:50:00,54.7,53.6,30.25,NNE,31,0.0,1.0,96,0.00,,---,0.00,VWS V14.01,2013-05-01 10:50:00,
2013-05-01 06:55:00,54.8,53.7,30.25,ENE,71,0.0,4.0,96,0.00,,---,0.00,VWS V14.01,2013-05-01 10:55:00,
2013-05-01 07:00:00,54.7,53.6,30.26,East,96,0.0,4.0,96,0.00,,---,0.00,VWS V14.01,2013-05-01 11:00:00,
2013-05-01 07:05:00,54.8,53.7,30.25,NNE,21,1.0,3.0,96,0.00,,---,0.00,VWS V14.01,2013-05-01 11:05:00,
2013-05-01 07:10:00,54.8,53.7,30.25,NNE,15,1.0,4.0,96,0.00,,---,0.00,VWS V14.01,2013-05-01 11:10:00,
2013-05-01 07:15:00,54.8,53.7,30.25,NNW,331,0.0,4.0,96,0.00,,---,0.00,VWS V14.01,2013-05-01 11:15:00,
2013-05-01 07:20:00,54.9,53.8,30.25,NE,37,0.0,4.0,96,0.00,,---,0.00,VWS V14.01,2013-05-01 11:20:00,
2013-05-01 07:25:00,54.9,53.8,30.25,ENE,63,0.0,4.0,96,0.00,,---,0.00,VWS V14.01,2013-05-01 11:25:00,
2013-05-01 07:31:00,55.0,53.9,30.26,East,79,0.0,4.0,96,0.00,,---,0.00,VWS V14.01,2013-05-01 11:31:00,
2013-05-01 07:36:00,55.1,54.0,30.26,NNE,13,0.0,4.0,96,0.00,,---,0.00,VWS V14.01,2013-05-01 11:36:00,
2013-05-01 07:41:00,55.5,54.4,30.26,NNW,344,1.0,4.0,96,0.00,,---,0.00,VWS V14.01,2013-05-01 11:41:00,
2013-05-01 07:46:00,55.8,54.7,30.26,North,5,0.0,2.0,96,0.00,,---,0.00,VWS V14.01,2013-05-01 11:46:00,
2013-05-01 07:51:00,56.0,54.6,30.26,North,5,3.0,5.0,95,0.00,,---,0.00,VWS V14.01,2013-05-01 11:51:00,
2013-05-01 07:56:00,56.2,54.8,30.26,NW,323,0.0,5.0,95,0.00,,---,0.00,VWS V14.01,2013-05-01 11:56:00,
2013-05-01 08:01:00,56.5,55.1,30.26,NNW,343,6.0,6.0,95,0.00,,---,0.00,VWS V14.01,2013-05-01 12:01:00,
2013-05-01 08:06:00,56.7,55.3,30.26,East,87,1.0,6.0,95,0.00,,---,0.00,VWS V14.01,2013-05-01 12:06:00,
2013-05-01 08:11:00,56.9,55.2,30.26,East,90,2.0,6.0,94,0.00,,---,0.00,VWS V14.01,2013-05-01 12:11:00,
2013-05-01 08:16:00,57.2,55.5,30.26,NNW,343,5.0,6.0,94,0.00,,---,0.00,VWS V14.01,2013-05-01 12:16:00,
2013-05-01 08:22:00,57.3,55.6,30.26,NE,53,3.0,7.0,94,0.00,,---,0.00,VWS V14.01,2013-05-01 12:22:00,
2013-05-01 08:27:00,57.4,55.4,30.27,NNE,32,3.0,7.0,93,0.01,,---,0.01,VWS V14.01,2013-05-01 12:27:00,
2013-05-01 08:32:00,57.4,55.4,30.27,WNW,282,5.0,7.0,93,0.01,,---,0.01,VWS V14.01,2013-05-01 12:32:00,
2013-05-01 08:37:00,57.7,55.7,30.27,NW,326,2.0,7.0,93,0.01,,---,0.01,VWS V14.01,2013-05-01 12:37:00,
2013-05-01 08:42:00,58.1,56.4,30.27,NE,44,6.0,7.0,94,0.01,,---,0.01,VWS V14.01,2013-05-01 12:42:00,
2013-05-01 08:47:00,58.2,55.9,30.27,NNW,342,0.0,6.0,92,0.01,,---,0.01,VWS V14.01,2013-05-01 12:47:00,
2013-05-01 08:52:00,58.6,56.6,30.27,NE,44,7.0,7.0,93,0.01,,---,0.01,VWS V14.01,2013-05-01 12:52:00,
2013-05-01 08:57:00,59.1,56.8,30.27,NNW,338,4.0,7.0,92,0.01,,---,0.01,VWS V14.01,2013-05-01 12:57:00,
2013-05-01 09:02:00,59.4,56.8,30.27,NE,53,6.0,8.0,91,0.01,,---,0.01,VWS V14.01,2013-05-01 13:02:00,
2013-05-01 09:07:00,59.1,56.2,30.28,North,5,5.0,8.0,90,0.01,,---,0.01,VWS V14.01,2013-05-01 13:07:00,
2013-05-01 09:12:00,59.3,56.7,30.28,SE,135,1.0,8.0,91,0.01,,---,0.01,VWS V14.01,2013-05-01 13:12:00,
2013-05-01 09:17:00,59.4,56.8,30.28,North,9,0.0,5.0,91,0.01,,---,0.01,VWS V14.01,2013-05-01 13:17:00,
2013-05-01 09:22:00,59.5,56.6,30.28,NNW,344,4.0,9.0,90,0.01,,---,0.01,VWS V14.01,2013-05-01 13:22:00,
2013-05-01 09:27:00,59.9,57.3,30.28,NW,318,0.0,9.0,91,0.01,,---,0.01,VWS V14.01,2013-05-01 13:27:00,
2013-05-01 09:33:00,60.2,57.0,30.28,North,5,4.0,6.0,89,0.00,,---,0.01,VWS V14.01,2013-05-01 13:33:00,
2013-05-01 09:38:00,60.2,56.6,30.28,NE,42,1.0,8.0,88,0.00,,---,0.01,VWS V14.01,2013-05-01 13:38:00,
2013-05-01 09:43:00,60.2,56.6,30.28,East,94,5.0,8.0,88,0.00,,---,0.01,VWS V14.01,2013-05-01 13:43:00,
2013-05-01 09:48:00,60.4,57.2,30.28,North,355,4.0,8.0,89,0.00,,---,0.01,VWS V14.01,2013-05-01 13:48:00,
2013-05-01 09:53:00,60.8,57.2,30.28,North,5,0.0,9.0,88,0.00,,---,0.01,VWS V14.01,2013-05-01 13:53:00,
2013-05-01 09:58:00,60.8,56.9,30.28,SE,124,7.0,9.0,87,0.00,,---,0.01,VWS V14.01,2013-05-01 13:58:00,
2013-05-01 10:03:00,60.3,56.7,30.29,SE,144,3.0,6.0,88,0.00,,---,0.01,VWS V14.01,2013-05-01 14:03:00,
2013-05-01 10:08:00,60.0,56.4,30.29,North,350,1.0,10.0,88,0.00,,---,0.01,VWS V14.01,2013-05-01 14:08:00,
2013-05-01 10:13:00,59.9,56.3,30.29,NNE,12,3.0,10.0,88,0.00,,---,0.01,VWS V14.01,2013-05-01 14:13:00,
2013-05-01 10:18:00,59.8,56.2,30.29,NE,51,2.0,10.0,88,0.00,,---,0.01,VWS V14.01,2013-05-01 14:18:00,
2013-05-01 10:23:00,59.7,56.5,30.30,NNW,337,1.0,10.0,89,0.00,,---,0.01,VWS V14.01,2013-05-01 14:23:00,
2013-05-01 10:28:00,59.7,56.5,30.30,North,350,1.0,10.0,89,0.00,,---,0.01,VWS V14.01,2013-05-01 14:28:00,
2013-05-01 10:33:00,59.7,56.5,30.30,ENE,63,5.0,7.0,89,0.00,,---,0.01,VWS V14.01,2013-05-01 14:33:00,
2013-05-01 10:38:00,59.9,56.7,30.31,NE,50,0.0,7.0,89,0.00,,---,0.01,VWS V14.01,2013-05-01 14:38:00,
2013-05-01 10:43:00,60.1,57.2,30.31,NNE,30,4.0,7.0,90,0.00,,---,0.01,VWS V14.01,2013-05-01 14:43:00,
2013-05-01 10:49:00,60.0,56.8,30.31,NE,50,0.0,5.0,89,0.00,,---,0.01,VWS V14.01,2013-05-01 14:49:00,
2013-05-01 10:54:00,60.5,57.9,30.31,North,5,1.0,5.0,91,0.00,,---,0.01,VWS V14.01,2013-05-01 14:54:00,
2013-05-01 10:59:00,60.7,57.4,30.32,SE,128,4.0,7.0,89,0.00,,---,0.01,VWS V14.01,2013-05-01 14:59:00,
2013-05-01 11:04:00,60.7,57.8,30.32,ESE,123,0.0,5.0,90,0.00,,---,0.01,VWS V14.01,2013-05-01 15:04:00,
2013-05-01 11:09:00,60.8,57.5,30.32,NW,314,0.0,6.0,89,0.00,,---,0.01,VWS V14.01,2013-05-01 15:09:00,
2013-05-01 11:14:00,61.4,57.8,30.32,SSE,151,2.0,6.0,88,0.00,,---,0.01,VWS V14.01,2013-05-01 15:14:00,
2013-05-01 11:19:00,61.2,57.3,30.32,North,5,3.0,7.0,87,0.00,,---,0.01,VWS V14.01,2013-05-01 15:19:00,
2013-05-01 11:24:00,61.5,57.3,30.31,North,360,4.0,9.0,86,0.00,,---,0.01,VWS V14.01,2013-05-01 15:24:00,
2013-05-01 11:29:00,61.6,57.0,30.31,NNE,30,4.0,9.0,85,0.00,,---,0.01,VWS V14.01,2013-05-01 15:29:00,
2013-05-01 11:34:00,61.4,57.2,30.31,NE,34,1.0,7.0,86,0.00,,---,0.01,VWS V14.01,2013-05-01 15:34:00,
2013-05-01 11:39:00,61.8,57.6,30.31,NNE,21,3.0,7.0,86,0.00,,---,0.01,VWS V14.01,2013-05-01 15:39:00,
2013-05-01 11:44:00,61.6,57.0,30.30,NNW,337,3.0,7.0,85,0.00,,---,0.01,VWS V14.01,2013-05-01 15:44:00,
2013-05-01 11:50:00,61.2,57.0,30.31,NE,51,5.0,7.0,86,0.00,,---,0.01,VWS V14.01,2013-05-01 15:50:00,
2013-05-01 11:55:00,60.9,57.0,30.31,NW,309,3.0,10.0,87,0.00,,---,0.01,VWS V14.01,2013-05-01 15:55:00,
2013-05-01 12:00:00,61.4,57.2,30.31,NNW,332,1.0,12.0,86,0.00,,---,0.01,VWS V14.01,2013-05-01 16:00:00,
2013-05-01 12:05:00,62.1,57.2,30.31,ESE,104,1.0,5.0,84,0.00,,---,0.01,VWS V14.01,2013-05-01 16:05:00,
2013-05-01 12:10:00,61.8,56.6,30.31,SW,231,1.0,7.0,83,0.00,,---,0.01,VWS V14.01,2013-05-01 16:10:00,
2013-05-01 12:15:00,61.4,56.5,30.31,NW,319,2.0,9.0,84,0.00,,---,0.01,VWS V14.01,2013-05-01 16:15:00,
2013-05-01 12:20:00,61.2,56.7,30.31,ENE,65,1.0,10.0,85,0.00,,---,0.01,VWS V14.01,2013-05-01 16:20:00,
2013-05-01 12:25:00,61.0,56.8,30.30,NE,46,0.0,11.0,86,0.00,,---,0.01,VWS V14.01,2013-05-01 16:25:00,
2013-05-01 12:30:00,60.9,57.0,30.30,North,350,1.0,11.0,87,0.00,,---,0.01,VWS V14.01,2013-05-01 16:30:00,
2013-05-01 12:35:00,61.5,57.9,30.30,NNE,18,3.0,9.0,88,0.00,,---,0.01,VWS V14.01,2013-05-01 16:35:00,
2013-05-01 12:40:00,62.2,57.6,30.29,ENE,57,1.0,9.0,85,0.00,,---,0.01,VWS V14.01,2013-05-01 16:40:00,
2013-05-01 12:45:00,62.3,57.7,30.29,NNE,15,1.0,9.0,85,0.00,,---,0.01,VWS V14.01,2013-05-01 16:45:00,
2013-05-01 12:50:00,62.8,57.9,30.29,NE,50,4.0,8.0,84,0.00,,---,0.01,VWS V14.01,2013-05-01 16:50:00,
2013-05-01 12:55:00,63.2,58.0,30.29,NNE,33,3.0,8.0,83,0.00,,---,0.01,VWS V14.01,2013-05-01 16:55:00,
2013-05-01 13:00:00,63.2,57.6,30.28,East,82,8.0,9.0,82,0.00,,---,0.01,VWS V14.01,2013-05-01 17:00:00,
2013-05-01 13:06:00,63.9,58.3,30.28,ESE,115,3.0,10.0,82,0.00,,---,0.01,VWS V14.01,2013-05-01 17:06:00,
2013-05-01 13:11:00,64.3,58.3,30.28,North,360,3.0,10.0,81,0.00,,---,0.01,VWS V14.01,2013-05-01 17:11:00,
2013-05-01 13:16:00,64.5,58.2,30.28,WNW,297,5.0,6.0,80,0.00,,---,0.01,VWS V14.01,2013-05-01 17:16:00,
2013-05-01 13:21:00,63.9,57.6,30.27,ESE,107,2.0,9.0,80,0.00,,---,0.01,VWS V14.01,2013-05-01 17:21:00,
2013-05-01 13:26:00,64.0,57.7,30.27,SE,134,8.0,17.0,80,0.00,,---,0.01,VWS V14.01,2013-05-01 17:26:00,
2013-05-01 13:31:00,63.6,57.3,30.27,SSE,151,1.0,2.0,80,0.00,,---,0.01,VWS V14.01,2013-05-01 17:31:00,
2013-05-01 13:36:00,62.9,57.7,30.27,NNW,344,4.0,10.0,83,0.00,,---,0.01,VWS V14.01,2013-05-01 17:36:00,
2013-05-01 13:41:00,63.0,57.8,30.27,East,81,2.0,10.0,83,0.00,,---,0.01,VWS V14.01,2013-05-01 17:41:00,
2013-05-01 13:46:00,63.1,57.5,30.27,ESE,107,1.0,4.0,82,0.00,,---,0.01,VWS V14.01,2013-05-01 17:46:00,
2013-05-01 13:51:00,63.5,58.2,30.27,East,93,0.0,6.0,83,0.00,,---,0.01,VWS V14.01,2013-05-01 17:51:00,
2013-05-01 13:57:00,64.1,58.8,30.27,East,99,2.0,9.0,83,0.00,,---,0.01,VWS V14.01,2013-05-01 17:57:00,
2013-05-01 14:02:00,64.2,57.6,30.27,ENE,71,9.0,9.0,79,0.00,,---,0.01,VWS V14.01,2013-05-01 18:02:00,
2013-05-01 14:07:00,64.5,57.8,30.27,NNE,12,3.0,9.0,79,0.00,,---,0.01,VWS V14.01,2013-05-01 18:07:00,
2013-05-01 14:12:00,64.6,58.3,30.27,NW,324,3.0,9.0,80,0.00,,---,0.01,VWS V14.01,2013-05-01 18:12:00,
2013-05-01 14:17:00,64.2,57.9,30.27,ENE,76,3.0,5.0,80,0.00,,---,0.01,VWS V14.01,2013-05-01 18:17:00,
2013-05-01 14:22:00,63.8,57.9,30.27,East,94,6.0,8.0,81,0.00,,---,0.01,VWS V14.01,2013-05-01 18:22:00,
2013-05-01 14:27:00,63.6,57.7,30.28,NNE,26,4.0,8.0,81,0.00,,---,0.01,VWS V14.01,2013-05-01 18:27:00,
2013-05-01 14:32:00,63.6,57.7,30.28,NNE,30,3.0,7.0,81,0.00,,---,0.01,VWS V14.01,2013-05-01 18:32:00,
2013-05-01 14:37:00,63.4,57.5,30.28,NNE,26,3.0,10.0,81,0.00,,---,0.01,VWS V14.01,2013-05-01 18:37:00,
2013-05-01 14:43:00,63.5,57.9,30.28,ESE,103,3.0,10.0,82,0.00,,---,0.01,VWS V14.01,2013-05-01 18:43:00,
2013-05-01 14:48:00,63.5,57.9,30.28,ENE,61,0.0,4.0,82,0.00,,---,0.01,VWS V14.01,2013-05-01 18:48:00,
2013-05-01 14:53:00,63.3,57.7,30.29,ESE,102,2.0,7.0,82,0.00,,---,0.01,VWS V14.01,2013-05-01 18:53:00,
2013-05-01 14:58:00,63.4,57.8,30.29,SE,131,3.0,8.0,82,0.00,,---,0.01,VWS V14.01,2013-05-01 18:58:00,
2013-05-01 15:03:00,63.3,57.7,30.29,NNW,333,2.0,9.0,82,0.00,,---,0.01,VWS V14.01,2013-05-01 19:03:00,
2013-05-01 15:08:00,63.2,58.0,30.29,ENE,71,1.0,9.0,83,0.00,,---,0.01,VWS V14.01,2013-05-01 19:08:00,
2013-05-01 15:13:00,63.2,58.0,30.29,NE,34,0.0,9.0,83,0.00,,---,0.01,VWS V14.01,2013-05-01 19:13:00,
2013-05-01 15:18:00,63.1,57.9,30.29,NNE,18,2.0,3.0,83,0.00,,---,0.01,VWS V14.01,2013-05-01 19:18:00,
2013-05-01 15:23:00,63.0,57.8,30.29,WNW,287,1.0,6.0,83,0.00,,---,0.01,VWS V14.01,2013-05-01 19:23:00,
2013-05-01 15:28:00,62.8,57.6,30.29,NNE,27,0.0,6.0,83,0.00,,---,0.01,VWS V14.01,2013-05-01 19:28:00,
2013-05-01 15:34:00,62.7,57.8,30.29,NE,46,1.0,4.0,84,0.00,,---,0.01,VWS V14.01,2013-05-01 19:34:00,
2013-05-01 15:39:00,62.5,57.3,30.28,NNW,338,1.0,8.0,83,0.00,,---,0.01,VWS V14.01,2013-05-01 19:39:00,
2013-05-01 15:44:00,62.7,57.5,30.28,SE,134,3.0,8.0,83,0.00,,---,0.01,VWS V14.01,2013-05-01 19:44:00,
2013-05-01 15:49:00,63.0,57.4,30.28,ENE,66,1.0,7.0,82,0.00,,---,0.01,VWS V14.01,2013-05-01 19:49:00,
2013-05-01 15:54:00,63.1,57.5,30.28,East,84,0.0,7.0,82,0.00,,---,0.01,VWS V14.01,2013-05-01 19:54:00,
2013-05-01 15:59:00,63.2,57.6,30.28,ESE,121,1.0,7.0,82,0.00,,---,0.01,VWS V14.01,2013-05-01 19:59:00,
2013-05-01 16:04:00,63.4,58.2,30.28,SE,128,3.0,3.0,83,0.00,,---,0.01,VWS V14.01,2013-05-01 20:04:00,
2013-05-01 16:09:00,63.4,58.2,30.28,ESE,105,2.0,5.0,83,0.00,,---,0.01,VWS V14.01,2013-05-01 20:09:00,
2013-05-01 16:14:00,63.4,58.2,30.28,NNW,342,1.0,5.0,83,0.00,,---,0.01,VWS V14.01,2013-05-01 20:14:00,
2013-05-01 16:19:00,63.1,57.2,30.28,SE,146,1.0,7.0,81,0.00,,---,0.01,VWS V14.01,2013-05-01 20:19:00,
2013-05-01 16:24:00,63.2,58.0,30.28,East,101,6.0,7.0,83,0.00,,---,0.01,VWS V14.01,2013-05-01 20:24:00,
2013-05-01 16:30:00,63.1,57.9,30.28,ESE,102,3.0,7.0,83,0.00,,---,0.01,VWS V14.01,2013-05-01 20:30:00,
2013-05-01 16:35:00,63.2,57.6,30.28,North,5,3.0,7.0,82,0.00,,---,0.01,VWS V14.01,2013-05-01 20:35:00,
2013-05-01 16:40:00,63.2,58.3,30.27,ESE,110,4.0,7.0,84,0.00,,---,0.01,VWS V14.01,2013-05-01 20:40:00,
2013-05-01 16:45:00,63.1,57.5,30.28,NNE,18,3.0,7.0,82,0.00,,---,0.01,VWS V14.01,2013-05-01 20:45:00,
2013-05-01 16:50:00,62.9,57.3,30.28,NE,54,3.0,7.0,82,0.00,,---,0.01,VWS V14.01,2013-05-01 20:50:00,
2013-05-01 16:55:00,62.7,57.5,30.28,ENE,59,3.0,7.0,83,0.00,,---,0.01,VWS V14.01,2013-05-01 20:55:00,
2013-05-01 17:00:00,62.6,57.4,30.28,NE,51,0.0,7.0,83,0.00,,---,0.01,VWS V14.01,2013-05-01 21:00:00,
2013-05-01 17:05:00,62.7,57.8,30.28,North,5,6.0,6.0,84,0.00,,---,0.01,VWS V14.01,2013-05-01 21:05:00,
2013-05-01 17:10:00,62.7,57.8,30.28,ESE,107,2.0,6.0,84,0.00,,---,0.01,VWS V14.01,2013-05-01 21:10:00,
2013-05-01 17:15:00,62.6,57.7,30.28,East,87,0.0,6.0,84,0.00,,---,0.01,VWS V14.01,2013-05-01 21:15:00,
2013-05-01 17:20:00,62.5,57.6,30.28,ESE,107,1.0,5.0,84,0.00,,---,0.01,VWS V14.01,2013-05-01 21:20:00,
2013-05-01 17:26:00,62.5,57.6,30.28,ESE,123,3.0,5.0,84,0.00,,---,0.01,VWS V14.01,2013-05-01 21:26:00,
2013-05-01 17:31:00,62.5,57.9,30.28,ENE,67,0.0,0.0,85,0.00,,---,0.01,VWS V14.01,2013-05-01 21:31:00,
2013-05-01 17:36:00,62.4,57.8,30.28,ENE,74,0.0,4.0,85,0.00,,---,0.01,VWS V14.01,2013-05-01 21:36:00,
2013-05-01 17:41:00,62.5,57.6,30.28,ENE,78,1.0,5.0,84,0.00,,---,0.01,VWS V14.01,2013-05-01 21:41:00,
2013-05-01 17:46:00,62.4,57.8,30.28,ESE,107,0.0,5.0,85,0.00,,---,0.01,VWS V14.01,2013-05-01 21:46:00,
2013-05-01 17:51:00,62.2,57.3,30.28,East,90,1.0,6.0,84,0.00,,---,0.01,VWS V14.01,2013-05-01 21:51:00,
2013-05-01 17:56:00,62.1,57.5,30.28,NE,44,1.0,6.0,85,0.00,,---,0.01,VWS V14.01,2013-05-01 21:56:00,
2013-05-01 18:01:00,61.9,57.7,30.28,East,84,1.0,8.0,86,0.00,,---,0.01,VWS V14.01,2013-05-01 22:01:00,
2013-05-01 18:07:00,61.6,57.4,30.28,North,9,1.0,8.0,86,0.00,,---,0.01,VWS V14.01,2013-05-01 22:07:00,
2013-05-01 18:12:00,61.4,57.5,30.28,NE,44,1.0,10.0,87,0.00,,---,0.01,VWS V14.01,2013-05-01 22:12:00,
2013-05-01 18:17:00,61.4,57.5,30.28,ESE,108,3.0,5.0,87,0.00,,---,0.01,VWS V14.01,2013-05-01 22:17:00,
2013-05-01 18:22:00,61.4,57.5,30.28,East,93,1.0,7.0,87,0.00,,---,0.01,VWS V14.01,2013-05-01 22:22:00,
2013-05-01 18:27:00,61.4,57.5,30.28,ESE,111,0.0,7.0,87,0.00,,---,0.01,VWS V14.01,2013-05-01 22:27:00,
2013-05-01 18:32:00,61.4,57.5,30.28,SE,140,5.0,5.0,87,0.00,,---,0.01,VWS V14.01,2013-05-01 22:32:00,
2013-05-01 18:37:00,61.4,57.5,30.29,SE,130,0.0,6.0,87,0.00,,---,0.01,VWS V14.01,2013-05-01 22:37:00,
2013-05-01 18:42:00,61.3,57.4,30.29,ESE,117,1.0,6.0,87,0.00,,---,0.01,VWS V14.01,2013-05-01 22:42:00,
2013-05-01 18:48:00,61.3,57.4,30.29,ENE,63,2.0,3.0,87,0.00,,---,0.01,VWS V14.01,2013-05-01 22:48:00,
2013-05-01 18:53:00,61.2,57.6,30.28,NNE,27,5.0,6.0,88,0.00,,---,0.01,VWS V14.01,2013-05-01 22:53:00,
2013-05-01 18:58:00,61.1,57.2,30.28,ESE,116,0.0,8.0,87,0.00,,---,0.01,VWS V14.01,2013-05-01 22:58:00,
2013-05-01 19:03:00,61.0,57.1,30.28,East,84,1.0,5.0,87,0.00,,---,0.01,VWS V14.01,2013-05-01 23:03:00,
2013-05-01 19:08:00,60.9,57.3,30.28,SE,127,2.0,5.0,88,0.00,,---,0.01,VWS V14.01,2013-05-01 23:08:00,
2013-05-01 19:13:00,60.8,57.2,30.28,ESE,119,4.0,7.0,88,0.00,,---,0.01,VWS V14.01,2013-05-01 23:13:00,
2013-05-01 19:18:00,60.7,57.1,30.28,East,98,0.0,5.0,88,0.00,,---,0.01,VWS V14.01,2013-05-01 23:18:00,
2013-05-01 19:23:00,60.7,57.1,30.28,East,96,0.0,9.0,88,0.00,,---,0.01,VWS V14.01,2013-05-01 23:23:00,
2013-05-01 19:28:00,60.6,57.3,30.28,ENE,73,0.0,9.0,89,0.00,,---,0.01,VWS V14.01,2013-05-01 23:28:00,
2013-05-01 19:33:00,60.6,57.3,30.28,East,82,0.0,3.0,89,0.00,,---,0.01,VWS V14.01,2013-05-01 23:33:00,
2013-05-01 19:39:00,60.5,57.2,30.28,NE,52,0.0,8.0,89,0.00,,---,0.01,VWS V14.01,2013-05-01 23:39:00,
2013-05-01 19:44:00,60.4,57.2,30.28,ESE,109,2.0,8.0,89,0.00,,---,0.01,VWS V14.01,2013-05-01 23:44:00,
2013-05-01 19:49:00,60.4,57.2,30.29,SE,130,3.0,8.0,89,0.00,,---,0.01,VWS V14.01,2013-05-01 23:49:00,
2013-05-01 19:54:00,60.3,57.0,30.29,SE,128,3.0,13.0,89,0.00,,---,0.01,VWS V14.01,2013-05-01 23:54:00,
2013-05-01 19:59:00,60.2,57.0,30.29,ESE,120,4.0,13.0,89,0.00,,---,0.01,VWS V14.01,2013-05-01 23:59:00,
2013-05-01 20:04:00,60.1,56.8,30.30,NW,319,0.0,6.0,89,0.00,,---,0.01,VWS V14.01,2013-05-02 00:04:00,
2013-05-01 20:09:00,60.0,56.8,30.30,ESE,111,3.0,8.0,89,0.00,,---,0.01,VWS V14.01,2013-05-02 00:09:00,
2013-05-01 20:15:00,60.0,56.8,30.30,ESE,118,4.0,8.0,89,0.00,,---,0.01,VWS V14.01,2013-05-02 00:15:00,
2013-05-01 20:20:00,60.0,56.8,30.30,ESE,104,2.0,5.0,89,0.00,,---,0.01,VWS V14.01,2013-05-02 00:20:00,
2013-05-01 20:25:00,59.9,56.7,30.30,NNE,26,1.0,9.0,89,0.00,,---,0.01,VWS V14.01,2013-05-02 00:25:00,
2013-05-01 20:30:00,59.8,56.6,30.30,North,360,2.0,9.0,89,0.00,,---,0.01,VWS V14.01,2013-05-02 00:30:00,
2013-05-01 20:35:00,59.8,56.9,30.30,NE,50,0.0,2.0,90,0.00,,---,0.01,VWS V14.01,2013-05-02 00:35:00,
2013-05-01 20:40:00,59.7,56.8,30.30,East,94,1.0,5.0,90,0.00,,---,0.01,VWS V14.01,2013-05-02 00:40:00,
2013-05-01 20:45:00,59.7,56.8,30.30,NNE,16,4.0,7.0,90,0.00,,---,0.01,VWS V14.01,2013-05-02 00:45:00,
2013-05-01 20:51:00,59.6,57.0,30.30,East,95,0.0,7.0,91,0.00,,---,0.01,VWS V14.01,2013-05-02 00:51:00,
2013-05-01 20:56:00,59.5,56.9,30.30,East,84,0.0,7.0,91,0.00,,---,0.01,VWS V14.01,2013-05-02 00:56:00,
2013-05-01 21:01:00,59.4,56.8,30.30,NNE,21,2.0,2.0,91,0.00,,---,0.01,VWS V14.01,2013-05-02 01:01:00,
2013-05-01 21:06:00,59.2,56.6,30.31,East,89,5.0,7.0,91,0.00,,---,0.01,VWS V14.01,2013-05-02 01:06:00,
2013-05-01 21:11:00,59.0,56.4,30.31,North,5,0.0,7.0,91,0.00,,---,0.01,VWS V14.01,2013-05-02 01:11:00,
2013-05-01 21:16:00,58.9,56.3,30.31,ENE,69,1.0,4.0,91,0.00,,---,0.01,VWS V14.01,2013-05-02 01:16:00,
2013-05-01 21:21:00,58.8,56.5,30.31,SE,135,0.0,4.0,92,0.00,,---,0.01,VWS V14.01,2013-05-02 01:21:00,
2013-05-01 21:27:00,58.8,56.5,30.31,ENE,77,1.0,5.0,92,0.00,,---,0.01,VWS V14.01,2013-05-02 01:27:00,
2013-05-01 21:32:00,58.8,56.5,30.31,ESE,120,0.0,1.0,92,0.00,,---,0.01,VWS V14.01,2013-05-02 01:32:00,
2013-05-01 21:37:00,58.8,56.5,30.31,ESE,107,0.0,6.0,92,0.00,,---,0.01,VWS V14.01,2013-05-02 01:37:00,
2013-05-01 21:42:00,58.7,56.4,30.32,East,101,0.0,7.0,92,0.00,,---,0.01,VWS V14.01,2013-05-02 01:42:00,
2013-05-01 21:47:00,58.5,55.9,30.32,NNE,24,0.0,3.0,91,0.00,,---,0.01,VWS V14.01,2013-05-02 01:47:00,
2013-05-01 21:52:00,58.3,56.0,30.32,NE,46,1.0,5.0,92,0.00,,---,0.01,VWS V14.01,2013-05-02 01:52:00,
2013-05-01 21:57:00,58.2,55.9,30.32,SSW,194,2.0,8.0,92,0.00,,---,0.01,VWS V14.01,2013-05-02 01:57:00,
2013-05-01 22:02:00,58.1,55.8,30.32,East,100,3.0,5.0,92,0.00,,---,0.01,VWS V14.01,2013-05-02 02:02:00,
2013-05-01 22:08:00,58.2,55.9,30.33,ESE,107,4.0,9.0,92,0.00,,---,0.01,VWS V14.01,2013-05-02 02:08:00,
2013-05-01 22:13:00,58.2,55.9,30.33,East,80,1.0,9.0,92,0.00,,---,0.01,VWS V14.01,2013-05-02 02:13:00,
2013-05-01 22:18:00,58.2,55.9,30.32,ESE,105,1.0,5.0,92,0.00,,---,0.01,VWS V14.01,2013-05-02 02:18:00,
2013-05-01 22:23:00,58.2,55.9,30.32,East,100,0.0,5.0,92,0.00,,---,0.01,VWS V14.01,2013-05-02 02:23:00,
2013-05-01 22:28:00,58.2,55.9,30.33,East,79,2.0,5.0,92,0.00,,---,0.01,VWS V14.01,2013-05-02 02:28:00,
2013-05-01 22:33:00,58.2,55.9,30.33,ENE,57,3.0,7.0,92,0.00,,---,0.01,VWS V14.01,2013-05-02 02:33:00,
2013-05-01 22:38:00,58.2,55.9,30.33,SE,124,0.0,7.0,92,0.00,,---,0.01,VWS V14.01,2013-05-02 02:38:00,
2013-05-01 22:43:00,58.2,55.9,30.33,ESE,121,2.0,7.0,92,0.00,,---,0.01,VWS V14.01,2013-05-02 02:43:00,
2013-05-01 22:49:00,58.2,55.9,30.33,ENE,69,1.0,7.0,92,0.00,,---,0.01,VWS V14.01,2013-05-02 02:49:00,
2013-05-01 22:54:00,58.3,56.0,30.33,NNE,14,5.0,9.0,92,0.00,,---,0.01,VWS V14.01,2013-05-02 02:54:00,
2013-05-01 22:59:00,58.3,56.0,30.33,ESE,114,1.0,9.0,92,0.00,,---,0.01,VWS V14.01,2013-05-02 02:59:00,
2013-05-01 23:04:00,58.3,56.0,30.33,East,82,0.0,1.0,92,0.00,,---,0.01,VWS V14.01,2013-05-02 03:04:00,
2013-05-01 23:09:00,58.2,55.9,30.33,ESE,105,4.0,6.0,92,0.00,,---,0.01,VWS V14.01,2013-05-02 03:09:00,
2013-05-01 23:14:00,58.2,55.9,30.33,East,95,5.0,6.0,92,0.00,,---,0.01,VWS V14.01,2013-05-02 03:14:00,
2013-05-01 23:19:00,58.0,55.7,30.33,NNE,25,2.0,5.0,92,0.00,,---,0.01,VWS V14.01,2013-05-02 03:19:00,
2013-05-01 23:24:00,57.8,55.8,30.33,ESE,111,0.0,8.0,93,0.00,,---,0.01,VWS V14.01,2013-05-02 03:24:00,
2013-05-01 23:29:00,57.7,55.7,30.33,NNE,22,0.0,8.0,93,0.00,,---,0.01,VWS V14.01,2013-05-02 03:29:00,
2013-05-01 23:35:00,57.6,55.9,30.33,ESE,105,1.0,3.0,94,0.00,,---,0.01,VWS V14.01,2013-05-02 03:35:00,
2013-05-01 23:40:00,57.5,55.8,30.33,NE,49,2.0,3.0,94,0.00,,---,0.01,VWS V14.01,2013-05-02 03:40:00,
2013-05-01 23:45:00,57.4,55.7,30.33,ENE,69,3.0,3.0,94,0.00,,---,0.01,VWS V14.01,2013-05-02 03:45:00,
2013-05-01 23:50:00,57.3,55.9,30.33,NNW,329,0.0,3.0,95,0.01,,---,0.02,VWS V14.01,2013-05-02 03:50:00,
2013-05-01 23:55:00,57.3,55.9,30.33,NE,40,0.0,3.0,95,0.01,,---,0.02,VWS V14.01,2013-05-02 03:55:00,